Temp
18 17 16 15 14 14 13 12 11 11 10 9 9 8 7 6 7 6 5 4 4 4 4 5 6 6 6 6 6 6 5 5 6 6 5 5 4 2 1 1 1 -0 -0
18 17 17 15 14 13 12 12 11 10 8 8 7 7 5 6 6 5 4 4 4 3 4 5 6 6 6 6 6 5 5 5 5 5 5 4 4 3 1 0 0 -0 -0
18 16 15 13 11 11 10 10 10 9 8 7 6 5 4 6 5 4 3 3 4 4 4 5 6 6 6 6 5 5 5 5 4 4 4 4 3 3 2 1 0 -0 -0
14 13 12 11 10 9 9 8 8 7 6 5 4 4 6 5 4 4 4 3 3 3 4 4 5 5 5 5 5 5 4 4 4 4 4 3 3 3 2 1 1 0 0
13 11 10 9 8 8 9 8 7 6 5 4 5 5 5 4 4 4 3 3 2 3 4 5 5 4 4 5 5 5 4 4 3 4 3 3 3 3 2 1 0 -0 -0
12 11 9 9 9 8 6 5 5 5 4 5 4 5 5 5 4 3 2 2 2 4 4 4 5 5 3 3 3 3 3 3 3 3 2 2 2 2 1 0 -0 -1 -0
11 10 8 7 6 6 6 6 5 4 4 5 5 5 4 3 3 2 2 2 3 4 4 4 4 5 4 3 3 2 1 1 1 0 0 1 1 1 0 -0 -1 -1 -1
10 8 7 7 6 6 6 5 4 5 5 4 4 3 3 3 3 2 3 2 3 4 4 4 4 4 4 3 2 3 2 2 0 -1 -1 0 0 -0 -1 -2 -2 -2 -2
9 8 7 7 6 6 5 4 4 4 4 3 4 4 4 4 3 3 2 2 3 3 4 4 4 3 3 2 1 1 2 1 0 -1 -1 -1 -2 -2 -3 -4 -3 -2 -2
8 7 7 6 6 5 4 3 3 3 4 4 4 4 3 3 3 2 2 2 2 2 3 3 3 2 2 2 1 0 0 1 1 -0 -2 -3 -4 -4 -4 -5 -4 -3 -2
7 6 5 4 3 3 3 4 4 4 4 3 2 3 3 2 2 1 0 -0 1 1 2 2 2 2 1 1 0 -0 -1 -0 -1 -2 -2 -1 -1 -2 -2 -3 -4 -3 -3
5 3 3 3 4 4 4 4 4 4 3 3 2 2 2 2 1 0 -1 -1 -2 -2 -1 -0 1 1 0 0 -0 -1 -1 -2 -2 -3 -3 -2 -1 -2 -2 -2 -2 -2 -3
4 4 3 3 3 3 3 3 3 3 2 2 1 1 1 -0 -0 -1 -2 -3 -3 -4 -3 -2 -2 -2 -2 -2 -2 -2 -3 -3 -3 -3 -3 -3 -2 -3 -3 -3 -3 -3 -3
3 3 3 2 2 2 2 2 2 0 -0 -0 -1 -1 -2 -2 -2 -4 -6 -5 -5 -5 -4 -3 -3 -3 -3 -3 -2 -2 -2 -3 -3 -3 -3 -3 -3 -3 -3 -3 -4 -3 -4
2 2 1 1 1 1 0 -1 -2 -3 -5 -4 -4 -4 -5 -5 -6 -8 -8 -7 -7 -7 -7 -6 -4 -3 -2 -2 -2 -3 -2 -3 -3 -3 -3 -3 -3 -3 -4 -4 -4 -4 -4
1 0 -2 -1 -1 -1 -1 -1 -4 -5 -6 -7 -7 -8 -7 -8 -9 -9 -8 -8 -8 -7 -5 -4 -3 -3 -3 -2 -1 -2 -3 -3 -3 -3 -3 -3 -3 -4 -4 -4 -4 -4 -4
-1 -2 -2 -2 -2 -3 -3 -3 -2 -4 -6 -7 -8 -9 -9 -10 -10 -10 -9 -9 -7 -7 -5 -5 -5 -4 -3 -2 -1 -1 -2 -3 -3 -4 -3 -3 -4 -4 -4 -4 -4 -4 -4
-4 -5 -3 -3 -4 -4 -5 -5 -5 -5 -5 -6 -7 -9 -10 -11 -11 -10 -10 -9 -8 -7 -7 -7 -7 -6 -6 -6 -3 -2 -3 -3 -4 -4 -4 -4 -4 -4 -4 -4 -4 -4 -4
-4 -5 -5 -6 -7 -7 -7 -7 -6 -7 -7 -7 -7 -8 -9 -12 -11 -10 -10 -9 -10 -9 -9 -9 -9 -9 -8 -8 -5 -3 -3 -4 -4 -4 -4 -4 -4 -4 -4 -4 -4 -4 -4
-6 -8 -8 -7 -7 -7 -8 -8 -8 -8 -8 -8 -9 -9 -11 -12 -10 -10 -10 -10 -11 -11 -11 -11 -11 -10 -10 -9 -9 -6 -3 -4 -4 -4 -4 -4 -4 -4 -4 -4 -4 -4 -5
-6 -8 -10 -8 -8 -9 -9 -9 -9 -9 -10 -10 -10 -11 -15 -14 -11 -11 -11 -11 -12 -12 -12 -12 -12 -12 -11 -11 -11 -10 -8 -4 -4 -4 -4 -4 -5 -5 -5 -5 -5 -5 -5
-9 -9 -9 -10 -10 -11 -12 -11 -11 -11 -11 -11 -12 -12 -14 -13 -12 -13 -13 -13 -13 -14 -14 -13 -14 -13 -13 -13 -13 -12 -10 -8 -5 -5 -5 -5 -5 -5 -5 -5 -5 -5 -5
-11 -11 -11 -11 -12 -13 -12 -12 -12 -13 -13 -13 -13 -13 -14 -14 -14 -14 -14 -14 -14 -15 -15 -15 -15 -14 -14 -14 -15 -14 -12 -10 -11 -9 -6 -5 -5 -5 -5 -5 -5 -5 -5
-12 -12 -12 -13 -13 -13 -13 -14 -14 -14 -15 -14 -14 -14 -14 -15 -15 -15 -15 -15 -16 -16 -16 -16 -17 -16 -15 -15 -15 -15 -15 -13 -14 -12 -10 -7 -5 -5 -5 -5 -5 -5 -5
-13 -13 -13 -13 -14 -14 -14 -14 -15 -15 -15 -15 -15 -16 -16 -16 -16 -16 -16 -17 -17 -17 -17 -18 -17 -16 -17 -16 -16 -16 -15 -14 -13 -12 -11 -9 -6 -6 -5 -5 -5 -5 -6
-14 -14 -14 -14 -14 -15 -15 -16 -16 -16 -17 -17 -17 -17 -17 -17 -17 -17 -17 -18 -18 -18 -19 -17 -17 -17 -18 -17 -16 -16 -15 -13 -13 -12 -10 -9 -8 -6 -6 -6 -5 -5 -6
Height
785 789 792 794 796 799 801 804 806 808 811 813 816 822 825 827 833 837 839 847 853 850 850 850 850 849 848 849 847 847 846 844 841 837 837 837 837 838 837 834 832 828 825
780 784 787 790 793 795 798 800 802 805 807 811 814 815 819 824 828 835 841 844 847 846 846 846 845 844 843 844 842 841 841 840 838 834 833 832 831 831 831 829 827 824 820
777 781 784 787 790 793 795 797 799 802 804 808 812 817 821 825 829 830 836 841 842 842 840 840 838 837 837 837 836 836 835 834 833 832 829 828 826 825 825 823 821 818 815
777 780 783 785 788 791 792 795 797 800 804 809 813 817 821 824 829 832 834 836 837 837 836 834 833 832 831 831 830 830 831 829 827 826 823 822 821 819 819 818 814 813 809
775 779 783 786 788 791 794 797 800 802 806 809 813 817 821 826 829 829 830 831 831 830 829 828 827 826 825 824 823 821 822 822 822 819 817 816 814 812 811 811 811 808 804
778 782 784 787 790 794 796 799 802 806 809 812 816 820 822 824 824 826 827 827 827 825 824 823 821 819 817 815 815 815 816 816 814 814 813 811 808 807 808 808 807 804 799
780 784 787 790 793 797 800 803 806 809 812 815 817 819 820 821 822 823 824 824 823 821 819 817 814 812 811 810 808 807 807 807 808 809 807 806 803 804 804 804 803 800 796
784 788 791 794 797 801 804 807 810 811 814 815 816 817 818 819 820 819 820 819 817 815 813 811 809 806 804 803 803 801 801 801 801 800 800 799 799 799 800 800 799 797 793
787 791 794 797 800 803 806 809 811 812 813 814 815 816 816 816 816 816 816 815 812 809 807 804 801 798 797 796 796 795 793 792 793 792 792 792 793 793 795 796 794 792 787
791 794 797 800 803 806 808 809 810 812 813 814 814 814 814 814 813 812 812 811 807 803 800 796 793 791 790 789 788 788 785 783 785 784 785 784 785 787 788 790 789 787 784
793 796 800 802 804 806 808 810 811 811 812 812 812 812 812 811 810 809 808 805 802 797 793 788 786 783 781 781 780 779 775 777 777 777 777 775 777 779 781 782 782 781 779
795 798 801 803 805 807 808 809 809 809 809 810 810 809 809 808 806 805 804 802 798 794 787 782 778 777 774 772 771 768 768 769 770 769 770 770 769 771 773 773 774 774 773
796 799 801 803 804 806 807 808 808 809 808 808 808 807 805 805 803 801 798 795 792 788 783 776 772 767 765 762 760 759 759 759 761 761 761 761 762 763 766 767 768 768 768
797 799 801 802 803 804 805 806 807 808 808 807 806 806 805 803 801 800 797 792 786 780 775 768 763 760 756 753 751 748 748 749 750 751 752 752 754 756 758 760 762 762 763
799 801 803 804 805 806 806 807 807 807 808 807 806 805 803 802 801 799 795 789 783 775 767 760 755 751 747 743 740 739 738 739 741 743 745 746 747 749 751 754 756 757 757
798 801 803 805 806 806 807 806 805 806 806 805 804 803 802 801 798 794 790 785 777 768 759 753 748 743 739 735 732 731 730 730 733 735 737 739 740 741 744 747 749 751 751
801 802 803 805 805 806 807 806 805 804 803 802 802 800 799 796 792 787 782 777 771 765 758 752 745 739 733 727 723 723 723 723 727 728 731 731 733 735 737 740 742 745 745
800 802 804 805 805 806 806 806 805 804 802 801 800 798 796 793 788 784 780 773 768 764 759 754 747 741 734 727 718 714 715 718 720 722 724 725 726 729 730 733 736 738 740
802 805 806 806 805 805 805 805 804 802 801 799 797 795 794 790 786 783 779 775 770 765 760 755 749 742 734 726 713 706 709 712 714 716 718 719 720 722 724 727 730 732 735
801 802 805 807 806 804 804 803 802 800 799 797 795 794 791 787 783 780 777 774 770 765 760 755 749 743 736 728 719 710 706 708 710 711 712 713 714 716 718 721 724 727 731
802 802 804 806 804 804 804 802 801 799 798 796 795 793 790 786 782 779 776 772 769 765 760 755 749 743 737 730 723 716 710 706 706 707 708 708 709 711 714 717 720 723 726
799 803 804 804 803 803 803 802 800 798 796 795 793 790 787 784 781 778 775 770 767 763 759 754 749 743 738 732 727 720 715 709 706 705 705 704 705 707 709 712 715 718 722
802 802 802 802 802 801 801 800 799 797 795 793 790 788 785 782 779 776 772 767 763 760 756 752 747 742 737 732 727 722 717 713 709 705 703 701 701 702 705 707 711 714 717
801 802 802 802 801 800 799 799 797 796 794 791 788 786 783 781 777 773 770 765 760 756 753 748 743 739 734 729 724 719 716 712 708 704 701 699 698 698 700 703 706 709 712
801 801 801 800 799 798 797 797 796 794 792 789 787 784 781 778 775 770 766 762 757 753 748 743 738 734 729 724 719 715 712 708 705 701 699 696 695 695 696 698 701 704 708
801 800 800 799 797 796 796 795 794 792 789 787 785 783 779 775 772 767 763 758 754 748 743 738 733 728 723 718 714 711 707 703 701 698 696 694 693 692 692 694 697 700 703
Wind_Speed
19 18 17 17 18 19 19 19 20 21 23 28 26 24 26 29 24 16 16 11 12 15 14 16 17 16 16 16 15 15 16 16 18 20 19 19 16 19 21 20 21 22 23
14 13 13 12 12 13 14 14 18 19 20 20 24 29 25 28 20 16 12 12 17 17 16 18 18 17 18 19 19 18 18 20 20 22 22 22 20 18 20 21 21 21 22
8 8 7 6 6 8 10 11 12 14 16 19 23 16 19 20 17 16 18 21 24 18 17 20 20 18 21 22 21 20 21 21 19 21 23 21 21 19 20 20 20 21 20
5 5 5 5 5 6 6 7 7 8 11 15 16 17 18 13 11 12 18 22 16 18 19 20 21 23 25 25 24 21 21 21 21 22 22 22 21 19 18 19 20 18 21
7 7 7 7 7 6 7 7 9 10 12 14 17 15 12 10 13 18 20 18 17 19 21 22 23 25 26 27 26 25 21 20 22 22 21 21 21 20 17 17 19 20 20
11 10 11 11 11 11 12 13 13 15 15 14 13 11 9 14 16 17 16 18 17 20 21 22 23 25 26 30 31 32 27 24 24 22 22 21 23 19 18 18 18 18 17
15 14 13 14 14 15 15 16 16 16 16 11 7 8 12 14 14 15 15 16 19 20 22 22 23 23 20 22 23 26 29 28 27 26 25 25 22 20 19 18 18 18 20
16 15 15 16 17 17 16 15 12 11 5 3 8 10 10 11 11 13 15 16 18 21 22 23 24 23 23 21 21 23 24 25 23 26 26 26 22 19 17 18 18 20 21
16 16 15 15 16 15 13 10 5 0 4 4 5 6 8 10 12 14 16 17 21 24 24 24 25 24 23 22 22 25 26 26 25 27 27 23 23 23 22 18 18 18 18
17 17 16 14 12 10 6 3 1 2 2 3 4 6 9 11 13 16 16 18 22 25 26 27 27 27 26 25 24 25 26 30 23 24 20 20 23 21 22 19 19 18 18
17 16 13 11 9 7 5 3 2 2 3 5 6 8 10 12 14 16 18 17 20 24 26 27 26 26 28 30 30 27 31 28 24 23 24 20 18 18 18 19 19 20 19
15 14 12 9 7 5 4 3 3 4 6 7 8 10 11 13 14 17 20 23 23 24 26 28 30 30 30 33 33 31 32 31 26 21 19 21 19 18 19 19 19 19 19
13 12 10 9 7 5 4 4 4 6 7 8 10 11 12 14 16 18 21 27 29 32 30 32 35 34 33 36 34 31 29 27 25 22 23 23 21 19 17 17 17 18 19
13 11 9 8 5 5 4 4 4 6 7 8 9 11 12 14 15 18 23 26 28 30 31 31 32 33 33 32 30 27 28 27 25 25 24 24 20 16 17 16 17 16 16
11 9 7 6 5 4 4 4 4 5 5 6 7 10 12 13 15 21 23 27 30 35 35 31 30 28 29 28 26 26 24 23 25 25 22 20 19 19 16 16 16 15 16
10 8 6 5 5 4 4 2 5 5 4 3 7 8 9 12 18 22 23 25 29 31 25 23 25 25 27 28 26 24 22 21 20 20 21 21 19 19 17 16 16 16 16
9 7 6 5 4 4 3 3 5 3 6 4 7 9 9 16 21 23 24 27 22 25 21 23 25 26 26 26 25 22 18 17 18 18 20 20 21 19 19 17 16 15 16
9 9 5 4 4 3 3 4 5 6 8 8 9 10 11 17 21 20 23 23 22 21 22 24 24 27 26 32 29 23 18 15 16 16 19 19 20 20 17 17 18 16 15
7 6 4 4 3 3 3 4 5 6 7 9 11 11 13 18 16 15 17 17 20 21 22 24 25 26 28 31 34 15 16 15 13 17 16 17 21 19 17 16 17 17 13
7 7 5 3 3 3 4 5 6 7 8 10 11 13 16 19 17 17 17 17 19 20 22 23 25 26 27 27 31 26 13 11 12 15 16 18 20 18 16 16 17 14 14
4 4 4 3 3 4 5 5 6 8 9 10 11 12 13 15 16 16 17 17 18 20 21 22 24 24 25 26 27 27 29 9 8 11 13 15 17 17 16 16 16 15 13
5 3 3 3 3 4 5 6 7 8 9 11 13 13 14 14 15 16 17 18 19 19 20 21 23 22 22 22 24 23 21 22 11 9 11 13 15 16 15 16 15 14 14
4 3 2 2 3 4 5 7 7 9 10 11 13 14 15 15 16 17 19 19 19 20 20 21 22 22 21 21 20 18 18 20 19 17 14 11 14 15 16 17 17 15 15
4 3 3 2 3 4 5 7 8 9 10 12 13 14 15 16 17 18 19 19 20 20 21 22 22 22 22 23 21 20 17 16 20 17 16 13 12 15 16 17 17 17 16
2 2 2 3 4 5 6 8 9 10 11 12 13 14 16 17 18 18 19 20 20 21 23 25 22 23 23 25 25 22 19 22 18 15 14 12 11 13 16 16 17 17 17
2 3 3 4 4 5 7 8 10 11 12 13 14 15 16 17 18 19 20 20 21 24 26 24 24 25 26 24 22 21 23 20 17 15 14 10 12 10 13 15 17 17 18
Wind_Direction
213 217 222 224 226 226 221 225 224 220 215 220 214 203 196 200 196 205 193 209 228 234 241 246 249 252 251 256 257 264 274 274 277 283 285 289 275 277 284 287 290 293 295
208 211 218 227 227 228 230 227 219 220 228 218 206 196 195 198 200 195 191 214 246 251 248 254 254 259 253 255 260 260 265 267 275 285 288 288 283 279 285 288 289 291 292
198 199 206 203 205 217 225 233 241 233 229 209 201 195 192 192 193 201 204 241 260 253 254 256 257 262 259 254 257 253 264 267 271 275 282 285 284 282 280 284 288 292 291
156 158 150 159 179 202 213 215 205 194 196 196 188 188 188 194 188 207 230 251 253 257 258 262 262 263 263 256 259 253 265 270 271 272 276 282 281 282 282 282 287 292 295
113 111 118 123 125 130 136 137 142 141 143 155 168 172 179 178 224 243 255 246 256 265 267 268 270 266 259 253 257 257 256 264 268 272 274 278 279 279 279 291 289 291 294
108 106 107 107 114 118 118 121 122 129 129 137 133 144 199 237 258 269 261 271 268 269 274 274 275 272 266 256 253 250 251 263 264 268 271 274 277 280 280 284 285 290 294
100 102 106 110 111 112 116 118 117 118 125 135 174 227 262 271 270 275 270 271 273 272 275 277 276 274 265 259 258 252 249 250 249 258 262 266 276 276 279 280 277 280 288
102 105 111 114 115 116 116 117 117 127 146 249 282 281 270 273 274 276 280 279 274 272 273 276 278 277 271 259 256 250 255 258 252 253 250 261 267 268 269 274 278 281 283
102 107 111 117 121 125 127 124 122 156 289 273 275 281 280 283 279 282 288 284 279 276 278 277 274 271 269 265 255 259 261 261 260 247 243 247 250 252 258 268 268 273 280
108 111 115 117 118 118 118 117 34 6 316 308 303 299 292 289 286 290 297 292 286 284 281 279 274 266 265 262 253 255 256 261 261 251 245 249 253 255 261 245 255 265 274
109 108 105 101 100 95 87 79 50 356 322 317 310 308 302 301 301 304 309 310 300 295 287 282 277 273 269 267 263 253 248 260 261 251 249 241 242 247 245 238 245 252 266
113 106 100 98 97 90 78 48 15 351 330 320 317 314 311 310 313 315 319 322 316 305 296 287 281 281 276 269 269 261 255 251 253 243 234 242 237 238 243 245 249 253 259
115 111 107 101 92 74 52 22 359 342 332 326 322 320 320 321 319 321 324 317 311 307 298 295 291 289 285 280 268 267 257 244 239 234 231 234 234 233 239 244 248 254 261
119 116 111 96 95 70 57 25 5 354 343 335 333 331 329 326 328 331 327 324 317 309 300 295 292 292 284 279 266 253 244 236 233 234 234 233 233 220 226 233 243 246 251
115 104 97 86 66 61 52 41 39 33 12 349 350 341 339 332 331 329 326 325 321 314 301 290 286 284 279 276 264 247 237 230 231 233 236 229 220 217 220 230 232 240 250
114 103 86 83 70 54 35 47 350 7 17 350 352 353 329 322 323 325 325 325 325 328 314 293 286 280 275 275 271 251 230 225 233 229 232 231 221 212 216 223 227 231 245
104 101 95 81 71 50 23 1 338 342 351 335 341 338 333 330 332 332 331 330 333 341 338 327 330 330 302 281 274 255 230 218 228 228 235 233 222 217 209 218 220 223 240
98 96 90 79 64 41 17 356 344 337 328 327 330 334 333 334 335 335 337 339 338 342 341 336 328 328 323 325 298 249 225 222 222 230 236 231 221 217 207 212 223 221 231
92 82 74 74 61 47 11 351 340 332 330 327 329 329 332 331 332 333 339 342 336 333 333 332 331 330 331 326 325 222 219 218 226 232 233 229 223 210 208 213 220 219 221
88 81 74 51 36 17 0 346 338 335 334 332 329 329 330 336 338 338 338 334 333 330 328 328 328 329 330 334 333 337 231 231 239 239 230 230 219 205 209 215 212 206 213
94 79 74 43 29 7 347 340 336 335 330 326 322 325 331 332 328 330 330 328 328 326 325 324 325 326 330 333 339 338 343 280 254 244 239 234 209 201 206 209 208 210 215
89 77 53 38 11 356 343 339 337 332 327 323 322 325 330 330 326 324 324 323 323 322 321 320 321 321 324 327 330 333 332 340 327 281 261 238 212 201 199 207 204 201 209
68 65 56 29 9 350 341 339 334 328 323 322 324 325 327 325 323 320 319 320 320 319 319 319 317 316 318 319 322 323 323 331 330 323 316 249 217 202 200 204 204 204 205
67 53 32 6 347 349 340 333 327 322 321 322 324 322 319 318 316 315 316 317 316 316 315 314 313 311 312 315 315 316 315 315 318 314 310 302 239 214 202 203 205 206 207
38 17 354 340 335 336 329 324 321 319 319 321 319 315 314 313 312 313 314 314 314 314 312 312 311 309 311 309 309 309 308 309 314 316 311 298 273 229 209 205 204 201 200
334 327 321 322 324 324 321 317 315 316 317 316 313 311 311 310 309 311 313 314 314 312 313 311 308 308 307 308 306 304 306 309 311 311 310 300 292 242 218 212 207 201 196